Flag for Sudan Weather past 2 weeks in Khartoum, Sudan

Now
N/A

Clear.


Feels Like: N/A
Forecast: 71 / 107 °F
Wind: 7 mph from Northwest

Location: Khartoum Airport

Current Time: Apr 27, 2015 at 4:07:19 AM

Latest Report: Apr 27, 2015 at 3:30 AM


Visibility: 10 mi

Pressure: 29.83 "Hg

Humidity: N/A

Dew point: N/A

Location of KhartoumLocation

Historic Weather in Khartoum — Graph

°F

Khartoum temperature yesterday

Maximum temperature yesterday: 99 °F (at 3:00 PM)
Minimum temperature yesterday: 75 °F (at 7:00 AM)
Average temperature yesterday: 90 °F

Past Weeks' High & Low Weather Summary

 TemperatureHumidityPressure
High109 °F (Apr 23, 12:00 AM)44% (Apr 12, 11:00 PM)30.12 "Hg (Apr 12, 11:00 PM)
Low64 °F (Apr 12, 7:00 AM)3% (Apr 16, 4:00 PM)29.68 "Hg (Apr 22, 5:00 PM)
Average86 °F9%29.90 "Hg
* Reported Apr 12 3:00 AM — Apr 27 3:00 AM, Khartoum, Weather by CustomWeather, © 2015

Note: Actual official high and low records may vary slightly from our data, if they occured in-between our weather recording intervals... More about our weather records

Advertising

Khartoum weather history for previous 24 hours

 ConditionsComfort  
Time TempWeatherWind HumidityBarometerVisibility
3:00 AM
Mon, Apr 27
82 °FClear.8 mph5%29.83 "Hg10 mi
2:30 AMN/AClear.8 mphN/A29.83 "Hg10 mi
2:00 AM82 °FClear.6 mph9%29.83 "Hg10 mi
1:30 AMN/AClear.7 mphN/A29.83 "Hg10 mi
1:00 AM84 °FClear.7 mph7%29.83 "Hg10 mi
12:00 AMN/AClear.6 mphN/AN/A10 mi
11:30 PM
Sun, Apr 26
N/AClear.7 mphN/A29.86 "Hg10 mi
11:00 PM88 °FClear.3 mph9%29.86 "Hg10 mi
10:30 PMN/AClear.6 mphN/A29.86 "Hg10 mi
10:00 PM90 °FClear.6 mph8%29.86 "Hg10 mi
9:30 PMN/AClear.5 mphN/A29.83 "Hg10 mi
9:00 PM91 °FClear.6 mph7%29.83 "Hg10 mi
8:30 PMN/AClear.7 mphN/A29.83 "Hg10 mi
8:00 PM93 °FClear.8 mph4%29.80 "Hg10 mi
7:30 PMN/AClear.8 mphN/A29.80 "Hg10 mi
7:00 PM97 °FSunny.10 mph5%29.80 "Hg10 mi
6:30 PMN/ASunny.9 mphN/A29.77 "Hg10 mi
6:00 PM99 °FSunny.12 mph3%29.77 "Hg10 mi
5:30 PMN/ASunny.9 mphN/A29.77 "Hg10 mi
5:00 PM99 °FSunny.10 mph3%29.77 "Hg10 mi
4:30 PMN/ASunny.9 mphN/A29.77 "Hg10 mi
4:00 PM99 °FSunny.10 mph7%29.77 "Hg10 mi
3:30 PMN/ASunny.9 mphN/A29.77 "Hg10 mi
3:00 PM99 °FSunny.8 mph7%29.77 "Hg10 mi
2:30 PMN/ASunny.8 mphN/A29.80 "Hg10 mi
2:00 PM97 °FSunny.8 mph5%29.80 "Hg10 mi
1:30 PMN/ASunny.14 mphN/A29.83 "Hg10 mi
1:00 PM95 °FSunny.15 mph5%29.83 "Hg10 mi
12:00 PM91 °FSunny.22 mph7%29.86 "Hg10 mi
11:30 AMN/ASunny.10 mphN/A29.86 "Hg10 mi
10:30 AMN/ASunny.13 mphN/A29.86 "Hg10 mi
10:00 AM86 °FSunny.14 mph7%29.86 "Hg10 mi
9:30 AMN/ASunny.14 mphN/A29.86 "Hg10 mi
9:00 AM81 °FSunny.15 mph7%29.86 "Hg10 mi
8:30 AMN/ASunny.13 mphN/A29.86 "Hg10 mi
8:00 AM77 °FSunny.13 mph8%29.86 "Hg10 mi
7:30 AMN/ASunny.12 mphN/A29.83 "Hg10 mi
7:00 AM75 °FSunny.13 mph7%29.83 "Hg10 mi
6:30 AMN/ASunny.13 mphN/A29.83 "Hg10 mi
Weather by CustomWeather, © 2015

See weather overviewHow to use our weather pages